Wind_Speed
15 16 17 17 17 17 17 19 22 23 25 23 14 8 5 4 9 12 14 17 21 24 24 25 24 23 23 23 22 22 22 24 26 24 27 27 23 24 22 17 17 12 9 15 14 10 5 3 7 12 16 19 20 23 23 23 24 23 21 21 19 18 18
14 15 16 17 17 18 18 19 22 23 24 25 18 10 5 3 5 10 14 18 23 26 25 23 24 24 25 24 22 23 23 25 27 25 28 30 28 25 23 21 16 7 8 12 13 13 5 3 4 4 10 14 15 21 23 22 24 24 22 20 20 20 19
14 15 16 17 18 19 19 20 22 22 22 24 21 13 5 2 4 8 13 15 20 27 26 22 22 22 23 24 22 23 24 25 26 26 28 30 29 27 23 22 16 9 8 7 9 12 6 3 4 4 10 13 10 16 23 23 23 23 23 21 20 20 21
13 15 16 16 18 19 19 20 22 20 18 21 23 18 10 4 2 5 9 9 10 18 21 21 22 21 21 23 22 23 24 25 27 27 28 29 28 27 24 22 19 14 11 9 10 12 8 3 3 4 10 15 13 13 18 23 24 23 22 21 21 21 21
12 13 14 15 16 17 18 19 21 20 18 19 22 21 16 10 5 2 7 10 8 9 12 17 22 23 23 23 23 24 25 26 28 27 26 26 26 26 24 22 21 19 16 14 12 12 10 7 4 4 8 11 10 11 13 17 21 22 22 22 22 21 20
11 12 12 13 14 15 16 17 19 21 19 18 19 20 19 15 11 7 2 8 10 8 7 12 20 23 23 24 24 25 25 26 28 28 26 25 24 24 23 22 21 21 20 17 14 11 10 9 5 4 7 8 6 8 11 12 14 18 21 22 23 22 21
12 12 11 12 14 14 15 15 17 18 18 17 16 17 18 17 14 10 5 2 8 11 9 10 17 20 20 22 23 23 25 26 26 27 27 25 23 23 22 21 22 23 22 20 18 14 11 11 8 6 5 5 3 4 7 9 10 12 16 19 22 22 22
12 12 12 12 13 13 14 14 15 15 16 15 14 14 16 16 16 12 7 3 3 8 9 10 15 17 18 22 24 24 25 25 24 24 25 24 22 22 22 21 22 24 23 22 21 18 14 12 11 9 7 4 2 2 3 6 8 11 13 15 17 21 22
11 12 12 12 12 13 12 13 13 13 13 14 13 13 14 15 15 13 9 6 2 4 7 10 13 13 16 21 23 24 24 23 23 23 23 24 23 22 22 22 23 25 25 23 22 20 18 14 12 10 9 8 5 2 2 3 5 9 13 13 13 16 19
11 11 12 13 13 12 12 11 12 12 12 13 12 12 13 14 15 13 11 9 5 1 5 9 11 11 15 19 20 23 24 23 23 23 23 24 24 23 23 23 23 24 24 23 21 19 18 16 13 10 9 9 7 5 3 3 4 5 9 11 12 11 13
11 11 12 12 12 11 11 11 11 12 11 12 12 11 10 12 13 12 11 9 7 3 3 8 10 10 13 17 18 20 22 23 22 21 21 22 22 23 22 21 21 22 21 20 19 17 15 15 15 12 9 7 7 6 3 3 4 5 5 6 7 8 10
11 11 11 11 12 11 11 10 10 11 11 11 11 10 9 10 10 10 10 9 6 5 3 3 7 9 11 14 17 17 19 20 19 18 17 17 19 19 17 18 19 20 20 19 17 16 14 14 15 16 13 10 9 8 5 3 3 4 5 5 6 7 8
12 12 10 10 12 11 10 9 9 9 9 9 10 9 9 9 7 7 9 9 7 4 4 4 6 7 7 12 16 16 15 15 16 15 13 12 13 14 14 15 17 18 18 17 16 15 14 13 13 14 14 11 9 8 7 5 3 7 13 13 10 8 6
12 11 10 10 12 11 9 8 7 7 7 8 9 9 8 8 7 6 7 8 8 5 3 3 4 4 3 6 12 14 14 15 16 16 14 12 11 11 11 12 14 15 15 14 14 14 14 14 13 12 11 9 9 8 9 9 7 8 16 18 13 10 7
12 10 10 11 11 10 10 9 8 7 7 8 8 9 8 7 7 7 6 7 7 5 4 3 2 1 1 2 6 11 12 13 16 18 17 16 13 11 10 10 11 11 12 12 12 13 13 14 14 12 10 10 11 11 12 13 12 10 15 19 18 14 11
11 10 10 11 11 11 11 10 9 8 8 8 8 8 8 7 6 6 6 7 6 4 4 3 5 3 2 3 3 8 10 9 12 15 16 15 14 13 11 10 9 8 9 11 12 12 13 13 13 11 8 8 10 11 11 13 15 15 16 19 18 16 14
11 11 11 12 12 12 11 10 10 8 7 7 7 7 7 7 6 5 5 6 6 4 2 1 2 3 2 3 2 6 9 9 10 13 15 16 15 15 14 12 10 7 7 10 12 12 12 11 11 9 7 6 7 8 8 12 16 17 16 16 18 18 16
11 10 10 12 13 12 11 10 9 8 7 6 7 7 8 8 7 6 5 5 6 5 2 2 3 1 0 1 0 3 6 9 10 9 13 18 18 17 17 14 12 9 7 8 10 11 10 9 9 8 6 5 5 7 9 13 15 16 16 17 19 19 17
10 10 10 11 11 10 9 9 9 9 8 7 7 8 9 8 7 6 5 5 5 5 3 3 4 3 2 1 1 1 3 5 8 8 11 17 18 19 19 16 14 12 9 8 8 8 8 7 8 8 8 8 7 7 9 12 14 15 17 17 18 18 17
8 8 9 10 9 8 9 9 9 10 9 9 9 9 9 8 6 6 6 6 5 5 4 4 3 3 2 1 2 2 2 3 6 6 7 12 17 18 18 16 16 14 12 9 7 7 7 6 6 7 7 8 8 7 8 11 13 14 14 14 14 16 16
6 7 9 9 7 7 8 9 9 10 10 10 10 9 9 7 5 6 7 7 6 4 3 3 3 3 2 1 0 2 2 3 5 5 4 7 13 17 17 16 15 14 13 12 9 7 6 5 4 5 6 6 6 7 8 10 13 13 11 11 12 13 14
6 7 9 7 6 5 7 8 9 10 10 10 10 9 7 6 6 7 7 7 6 5 4 3 2 2 1 0 0 1 2 2 3 6 6 5 7 12 15 15 15 13 13 13 13 11 7 4 4 6 6 6 5 6 7 9 11 11 10 10 11 12 12
6 8 7 6 5 6 7 9 9 9 9 10 10 8 8 7 8 9 9 7 7 6 5 5 4 3 2 2 3 3 4 4 3 3 5 4 5 7 10 12 13 13 13 13 13 13 10 8 7 6 4 3 3 4 6 8 10 10 10 10 10 9 10
8 8 7 7 6 7 9 10 9 7 8 10 9 8 10 10 10 10 10 9 9 8 7 6 5 4 3 4 4 5 5 6 6 5 3 2 2 3 6 9 10 11 12 13 12 10 9 9 9 8 5 2 2 4 6 7 8 9 10 11 10 9 10
10 10 8 8 7 7 9 9 7 6 7 8 8 8 10 10 11 11 11 11 11 11 10 7 5 4 3 3 3 4 5 6 7 7 5 2 3 3 2 5 6 9 11 12 10 9 8 8 8 6 4 3 3 4 5 6 7 7 9 10 11 11 10
10 10 10 9 6 6 8 7 5 5 4 5 7 8 9 9 9 9 10 11 12 13 11 8 6 4 3 3 3 3 4 6 7 7 7 4 2 3 1 1 1 5 9 11 12 10 8 8 8 6 4 3 2 3 4 5 6 7 8 10 12 12 10
7 8 9 9 6 6 6 6 5 4 2 2 4 6 7 7 8 8 8 10 12 14 13 10 6 4 4 4 4 3 4 5 7 7 6 3 1 1 2 3 3 5 7 8 9 9 8 8 8 6 5 3 3 4 4 4 5 5 6 8 9 9 8
6 6 6 6 5 5 4 4 6 4 0 1 2 4 6 7 7 8 9 10 12 14 13 11 7 5 4 1 2 3 2 2 3 2 1 2 3 3 5 6 5 5 6 7 8 7 7 7 7 7 8 6 4 5 5 4 3 2 2 2 2 3 2
3 4 4 3 4 4 2 3 5 4 1 3 3 2 4 6 6 8 9 9 11 13 13 12 9 7 7 6 6 7 7 7 8 9 9 9 9 8 8 7 6 6 6 7 7 7 6 6 6 6 7 7 6 6 6 6 4 3 2 1 1 1 1
1 3 3 2 1 2 0 1 3 3 1 4 5 2 3 4 5 7 8 8 10 12 13 13 11 8 8 10 11 13 15 16 17 17 16 14 13 13 10 8 7 7 6 6 6 5 5 5 5 5 5 6 5 4 4 4 3 2 3 4 5 6 6
2 3 3 1 1 2 2 2 3 2 2 5 5 3 1 2 3 6 6 7 10 13 13 13 13 10 8 9 12 16 18 20 20 19 18 16 14 14 13 11 9 8 7 6 5 4 3 2 3 4 3 3 3 2 2 3 4 4 5 6 7 8 9
3 2 1 3 4 4 4 3 2 1 3 4 4 3 1 1 3 5 5 7 11 13 12 12 13 12 9 9 12 14 16 17 17 17 17 17 15 15 14 13 12 10 9 8 6 4 3 2 1 2 2 2 2 1 1 3 3 4 5 5 5 5 5
3 4 3 4 5 6 7 6 5 3 3 4 4 4 4 2 2 5 5 7 11 12 11 11 12 13 12 11 13 14 14 15 16 16 16 16 17 17 17 17 16 15 13 11 9 8 6 5 4 3 2 3 3 2 1 1 2 3 5 6 7 8 8
4 5 5 6 7 7 5 4 6 5 3 4 5 4 4 4 4 6 6 7 9 10 9 9 11 13 13 13 14 15 15 16 17 16 17 18 20 21 21 21 21 20 19 18 16 14 12 10 8 7 6 6 6 5 5 5 5 5 6 8 10 11 11
6 7 8 7 5 3 5 4 2 4 4 7 7 5 2 4 7 9 7 7 8 8 7 8 10 12 13 13 14 15 16 17 17 17 19 20 21 21 22 22 22 22 22 22 22 20 18 16 13 12 11 10 9 9 9 10 9 9 10 11 13 14 14
5 4 3 1 2 4 7 7 4 1 2 6 7 3 3 8 11 10 7 7 8 8 6 8 10 11 12 13 15 16 17 17 17 18 20 20 19 18 19 19 20 20 21 23 24 23 22 21 20 18 15 13 12 12 12 13 12 12 13 15 16 17 17
4 5 4 4 3 5 6 7 8 8 6 6 5 5 9 14 14 11 8 8 9 8 8 10 11 12 13 15 15 15 16 16 17 17 18 18 17 16 16 17 18 19 21 23 24 24 24 23 23 23 22 19 18 17 16 16 16 17 18 19 20 20 19
Wind_Direction
9 3 6 10 8 3 4 6 7 11 13 6 352 338 330 254 232 233 232 228 223 216 211 210 210 210 210 207 204 204 203 202 202 197 188 187 191 194 196 204 223 241 198 182 190 182 157 188 213 218 221 222 223 222 224 225 226 229 230 228 230 231 232
8 4 6 10 8 5 3 5 8 10 13 12 6 351 347 324 258 238 230 228 222 213 209 211 210 209 207 204 201 201 200 199 201 201 196 194 193 190 194 206 216 215 185 194 203 198 181 152 191 222 212 215 227 225 224 225 224 227 231 231 232 233 234
6 5 7 8 5 3 2 2 6 10 11 13 13 9 9 2 294 253 237 232 221 211 208 210 208 205 205 206 206 204 202 200 200 203 205 203 198 193 197 205 205 185 174 188 200 205 210 180 181 206 197 197 214 223 223 224 223 224 227 231 232 233 236
7 6 6 3 1 0 358 357 2 7 10 12 15 17 23 31 321 260 236 231 218 206 208 212 207 202 202 207 210 206 204 205 203 205 206 206 204 201 204 211 210 201 189 185 193 203 216 212 174 182 197 200 208 219 222 222 223 223 225 229 229 231 235
10 9 6 359 358 359 354 353 360 4 8 11 14 19 22 19 5 305 222 224 227 205 205 211 206 201 199 202 206 206 206 208 206 204 202 200 202 205 210 215 216 215 208 199 198 203 218 236 230 191 188 192 208 224 224 223 224 224 226 229 230 232 233
9 9 6 356 355 358 355 353 357 1 5 5 7 17 24 23 15 5 280 237 239 223 201 200 199 201 201 202 205 207 208 209 209 208 205 202 202 205 212 216 216 219 218 213 210 208 212 223 238 228 194 184 200 217 216 221 225 225 228 231 233 236 236
5 4 4 357 352 355 355 353 354 359 5 4 2 10 19 27 25 15 15 276 235 225 212 196 194 199 204 207 208 210 210 208 205 206 208 210 209 208 213 218 218 219 219 218 218 215 213 210 210 215 203 198 217 202 201 214 220 224 228 230 233 235 239
359 359 359 356 351 353 353 352 352 356 2 5 7 8 10 19 24 22 27 29 231 220 214 201 196 197 202 206 203 203 207 206 202 203 207 210 211 208 209 214 218 220 220 220 220 220 221 220 214 211 202 198 242 255 214 214 218 229 236 236 235 234 238
357 358 353 349 347 348 350 349 349 352 356 2 10 12 7 10 17 24 32 29 358 227 208 199 200 198 199 203 200 200 206 211 212 211 210 211 212 210 208 211 217 221 222 222 223 222 223 226 224 219 213 207 214 251 289 254 234 241 246 245 241 239 240
354 352 349 346 345 344 346 348 348 349 353 359 8 12 8 6 10 20 28 26 14 293 201 196 197 193 196 201 204 206 211 215 216 215 214 215 218 219 215 214 218 220 220 220 222 224 226 228 227 222 218 219 220 222 232 248 241 239 244 242 242 248 249
351 351 354 354 352 349 348 348 348 350 355 -0 6 10 6 2 5 13 22 28 32 55 167 197 196 190 196 203 207 210 210 207 208 215 223 225 224 222 218 217 219 220 220 219 221 225 227 229 227 220 215 218 224 225 235 265 252 241 239 240 254 274 273
358 360 -0 359 1 358 353 349 349 351 357 2 5 6 6 4 1 5 16 25 37 63 93 162 178 183 200 209 210 210 210 207 207 214 224 226 223 218 215 216 218 219 218 216 217 222 225 227 227 223 219 216 213 221 245 281 282 271 268 283 312 315 302
2 5 2 3 6 3 357 353 351 352 357 2 4 3 6 11 7 359 7 19 31 65 89 94 125 154 194 214 211 207 205 205 207 212 216 218 219 214 209 212 214 213 212 210 211 217 221 224 225 222 220 217 215 223 234 232 243 274 271 274 297 316 317
1 2 2 9 9 7 7 6 4 3 4 4 3 5 5 13 19 10 2 7 18 44 82 93 109 131 161 200 205 203 197 192 193 199 201 202 205 200 196 201 207 210 212 212 213 215 216 218 216 214 212 209 212 220 227 228 232 264 270 271 278 287 293
1 359 4 14 14 16 22 24 23 22 27 24 17 18 18 17 23 27 22 8 1 13 34 55 76 130 225 205 202 200 196 195 194 191 188 190 192 183 173 178 188 200 208 211 216 217 218 218 212 209 211 210 212 214 222 231 236 251 268 275 279 280 278
7 3 10 19 18 21 28 36 42 42 43 41 37 41 40 32 26 26 32 25 8 357 359 25 46 29 317 307 253 205 197 205 207 201 198 199 198 190 179 172 166 169 184 195 200 203 210 216 209 202 200 202 207 210 218 233 238 240 253 269 280 281 275
11 10 17 21 20 30 43 53 57 57 52 40 33 36 37 38 37 29 26 24 21 17 347 308 29 26 1 344 293 219 219 227 222 219 221 219 215 210 205 198 185 166 167 185 189 188 194 205 205 198 191 198 215 218 221 231 236 237 247 263 274 277 276
11 15 24 26 32 48 58 57 56 54 44 29 21 20 20 24 32 36 37 28 24 25 14 222 224 274 342 26 334 239 252 248 239 241 232 224 223 221 219 218 209 195 179 180 183 181 183 190 197 199 187 187 216 226 223 230 236 241 250 259 268 274 275
10 23 31 33 45 62 60 51 51 47 40 33 28 22 17 16 22 36 47 49 48 49 73 169 200 222 218 247 285 301 301 258 249 261 242 225 225 227 227 228 224 214 200 182 171 166 167 170 180 189 183 177 190 210 223 235 241 243 245 253 264 273 275
7 29 35 34 56 68 52 48 49 45 44 40 36 30 22 18 22 35 48 58 66 72 87 121 144 163 177 232 276 272 301 258 244 267 253 226 225 228 229 230 229 223 215 203 184 160 151 151 166 181 185 186 191 205 224 239 244 243 244 251 262 271 276
10 34 30 35 67 63 43 50 50 45 48 47 47 46 34 30 38 47 51 55 64 81 92 107 113 110 126 145 214 251 277 257 241 254 264 235 226 223 226 230 230 230 228 224 220 195 166 159 183 189 183 188 197 207 222 234 239 241 244 252 261 268 276
18 27 23 42 80 59 47 59 49 43 53 55 57 57 51 61 75 71 66 58 57 69 77 86 96 74 55 18 262 245 251 258 248 243 245 251 235 225 227 228 225 228 236 237 237 236 225 216 218 198 178 179 192 204 216 227 234 239 241 248 257 266 274
22 24 36 73 85 56 55 55 40 42 55 53 49 54 63 79 86 82 80 71 59 55 55 58 59 37 2 325 298 272 256 258 261 251 247 251 248 237 233 228 223 225 234 241 244 243 238 237 239 231 209 187 181 193 209 223 234 242 246 251 259 267 272
37 39 68 85 66 54 56 43 33 48 57 48 47 59 67 68 69 71 72 69 64 55 46 41 31 7 331 305 287 269 262 259 255 259 267 277 304 276 243 232 235 236 234 238 241 232 219 223 236 242 248 254 225 217 219 228 242 251 255 262 266 265 264
51 55 75 75 54 57 61 45 36 50 58 55 60 66 67 66 64 62 60 61 61 52 43 32 17 357 323 294 274 254 251 253 254 259 260 268 23 9 260 235 253 251 238 232 230 220 203 198 205 217 227 229 229 234 234 239 252 257 258 264 268 266 267
59 62 71 73 63 60 59 49 37 39 51 66 69 62 58 60 61 57 58 60 54 45 38 29 15 353 314 280 262 257 249 242 246 255 255 252 346 21 60 134 203 209 208 212 218 225 222 203 195 200 209 210 210 216 223 233 245 254 259 264 271 274 278
59 64 70 70 67 64 57 41 27 24 30 77 77 67 53 43 43 50 60 60 46 36 32 28 20 354 318 275 240 234 238 235 239 250 253 245 271 47 108 123 125 139 153 171 189 206 214 202 194 192 184 179 194 201 205 220 233 249 260 264 271 276 279
60 66 70 61 58 65 55 19 16 19 0 176 104 82 57 36 34 48 60 57 40 29 27 30 33 28 14 3 178 172 180 205 210 214 200 159 147 119 119 128 124 117 116 117 128 145 162 167 167 168 161 151 154 168 170 172 182 198 222 242 267 274 274
77 76 68 49 50 60 42 343 1 6 189 188 189 133 57 35 39 55 59 51 34 27 30 36 43 54 64 78 102 119 123 122 122 116 109 115 125 122 120 125 121 114 113 105 104 112 123 133 141 146 144 139 135 138 145 150 154 155 156 167 220 238 241
89 97 84 66 48 49 339 315 1 12 158 193 202 179 47 26 46 62 62 49 32 29 36 39 41 58 79 87 98 109 114 112 110 109 108 110 113 109 103 100 95 93 94 95 97 100 103 122 146 150 144 147 150 150 159 173 192 231 263 277 282 283 283
118 137 134 162 237 275 277 317 9 19 195 203 199 174 26 7 59 69 68 54 37 36 44 43 40 53 77 90 98 107 111 109 103 100 99 98 97 95 90 85 81 76 73 71 72 80 86 110 152 160 165 176 186 205 232 249 263 275 287 293 293 292 291
157 185 254 275 283 305 310 317 349 271 219 206 187 182 248 303 87 91 83 57 43 43 50 49 43 49 67 91 105 114 118 113 103 95 92 91 90 88 85 80 75 69 66 64 59 63 70 68 101 133 161 175 171 176 281 294 300 318 329 334 337 338 338
244 258 285 292 302 322 319 304 308 301 241 214 202 208 232 247 122 119 95 53 45 45 48 50 49 51 65 88 108 120 125 117 108 102 99 96 92 87 83 80 76 73 71 70 68 68 70 69 75 92 111 120 117 109 80 25 14 18 18 31 46 50 55
290 285 297 303 309 329 341 315 304 305 270 233 231 230 232 227 163 128 95 52 43 40 40 49 55 58 69 85 101 113 114 110 108 108 104 100 95 91 87 83 81 79 75 73 71 70 69 70 77 85 92 95 98 100 100 94 85 75 71 72 70 65 64
319 305 305 304 303 358 52 55 330 296 270 245 238 239 223 179 151 124 92 52 31 23 33 59 65 63 69 79 90 98 98 98 103 107 104 100 96 93 89 85 84 81 77 73 71 69 68 69 73 77 81 86 92 98 102 100 95 90 84 78 70 62 57
334 328 330 83 105 60 53 55 51 33 229 227 227 224 141 145 140 119 86 47 23 20 52 85 78 67 70 78 86 91 92 93 98 102 101 98 96 94 91 88 87 84 79 75 72 70 70 72 74 77 81 87 94 98 101 98 95 91 84 75 67 58 51
66 70 92 120 90 33 36 59 78 93 117 155 174 154 139 140 132 111 81 55 43 50 84 98 87 76 78 84 88 89 90 92 96 98 98 98 97 97 94 90 90 87 83 80 77 74 73 75 77 79 82 86 90 92 92 91 88 85 79 70 63 56 51
Height
824 823 821 819 818 816 814 812 810 809 807 805 803 802 801 801 802 802 802 803 804 806 807 808 809 810 812 814 816 817 818 819 820 820 822 824 826 826 828 831 834 834 832 833 835 836 838 841 841 842 842 843 843 843 843 843 843 844 844 844 844 844 845
824 822 821 819 818 816 814 812 810 808 807 805 804 802 801 801 801 801 801 801 801 802 805 806 808 809 810 812 814 815 816 817 819 820 821 822 823 824 826 829 831 831 830 832 833 833 834 837 840 840 840 841 841 841 841 842 842 842 842 843 843 843 843
824 822 820 819 817 815 814 812 810 809 808 806 805 802 801 801 800 800 800 800 799 800 803 805 807 809 810 811 812 813 815 816 818 819 820 821 822 822 824 827 828 828 828 830 831 832 833 834 836 837 837 838 838 838 839 839 840 840 840 841 841 841 842
824 822 820 819 818 816 814 813 811 810 809 808 806 803 802 801 800 800 799 800 799 799 801 803 805 807 810 812 812 812 813 814 816 818 819 820 821 822 823 824 825 826 826 828 829 831 832 833 834 835 835 835 836 836 837 837 838 838 839 839 839 839 840
824 823 821 820 819 817 815 813 812 811 809 808 807 804 802 801 801 800 799 799 799 799 800 802 803 805 807 810 811 811 812 813 814 816 818 818 819 820 821 822 823 825 825 826 827 829 831 832 833 833 833 834 835 835 835 836 836 837 837 837 837 838 839
824 823 822 820 819 817 816 814 812 811 810 808 807 806 804 803 801 800 799 799 799 799 799 800 802 803 804 807 809 810 810 811 812 814 815 816 817 818 819 820 821 823 824 825 826 828 829 831 832 833 833 833 834 834 834 835 835 835 835 835 836 836 837
824 823 821 820 818 817 816 814 813 812 811 809 808 807 805 804 802 800 800 799 798 799 800 800 800 802 805 807 808 809 810 810 811 812 814 815 816 817 818 819 819 821 822 824 825 826 827 829 830 831 832 832 832 833 833 833 833 833 833 833 834 834 835
823 822 821 820 818 817 815 814 813 812 811 810 809 808 806 805 803 801 800 799 798 799 800 800 800 801 804 806 807 808 809 810 811 811 812 814 815 816 816 817 818 819 821 822 823 825 826 827 828 829 831 832 832 832 832 832 832 831 831 831 832 832 833
823 821 820 819 817 816 815 814 812 811 811 810 809 808 807 805 804 802 800 799 798 798 799 799 799 800 802 803 804 806 808 809 810 810 811 813 814 814 814 815 817 818 820 821 822 823 825 826 827 827 829 830 832 833 832 831 831 830 830 830 830 830 831
822 821 819 818 817 816 814 813 812 811 810 809 809 807 806 805 804 802 801 799 798 797 798 799 799 800 801 802 803 805 807 808 808 809 810 811 812 813 813 814 815 817 818 819 821 822 823 824 825 826 827 828 830 831 832 831 830 828 828 828 828 828 829
821 820 819 817 816 815 814 813 811 810 809 809 808 807 806 805 804 803 801 800 799 798 799 799 799 799 800 802 803 805 806 807 807 807 809 810 811 812 812 812 814 815 817 818 819 821 822 823 824 824 826 826 828 829 831 831 829 827 826 827 827 827 827
821 819 818 816 815 814 813 812 811 810 809 808 808 807 807 806 804 803 802 801 800 799 800 800 800 800 800 802 803 804 805 805 805 806 808 809 810 811 810 811 812 814 815 816 818 819 820 821 822 823 823 824 825 827 828 830 830 827 826 827 827 827 827
820 819 818 816 815 813 813 812 811 810 809 808 808 807 807 806 805 803 802 802 801 800 800 800 801 801 801 802 803 804 804 805 805 806 808 810 810 810 810 810 811 812 814 814 815 817 818 819 820 821 821 822 823 825 826 828 829 828 826 827 827 827 826
819 818 817 816 814 813 812 811 811 810 809 809 808 807 807 806 805 804 803 802 802 801 801 801 801 802 802 803 803 804 804 805 805 807 808 810 811 811 810 810 811 811 812 813 814 815 816 817 818 819 819 820 820 822 824 826 827 827 826 826 826 826 826
819 818 817 815 814 813 812 811 811 810 809 809 808 807 807 806 805 804 803 802 802 802 802 802 802 802 802 803 803 804 804 805 806 807 808 810 811 810 810 810 810 810 811 812 813 814 815 816 816 816 817 818 818 819 821 823 826 827 825 824 824 825 824
818 817 816 815 814 813 812 812 811 810 809 809 808 807 807 806 805 805 804 803 802 801 801 802 802 802 802 802 803 803 804 805 807 807 807 808 809 809 809 809 809 809 810 811 811 812 814 814 814 814 815 815 815 816 818 820 823 825 824 822 822 823 823
818 817 816 815 814 813 812 812 811 810 810 809 808 808 807 806 805 805 804 803 802 802 801 801 802 802 802 802 803 803 804 805 806 807 807 807 808 809 809 808 807 808 808 809 810 810 811 813 812 811 812 813 813 814 816 819 821 822 822 821 821 821 821
818 817 816 815 814 813 813 813 812 811 810 810 809 808 807 806 806 805 804 803 803 802 802 802 802 802 802 802 803 804 804 805 805 805 806 806 807 808 808 808 807 807 807 808 808 808 809 810 809 809 810 811 812 813 815 817 819 820 821 820 820 820 820
818 817 816 815 814 814 814 813 812 812 811 810 809 808 807 807 806 805 805 804 803 803 802 802 803 803 802 802 802 803 803 804 804 805 804 805 806 807 807 807 807 806 806 806 807 807 806 807 807 808 809 810 811 812 814 816 818 818 819 819 819 819 818
818 817 816 815 815 815 814 813 813 812 812 811 810 809 808 807 806 806 805 804 804 804 804 803 803 803 803 803 802 802 802 803 804 804 803 803 804 806 806 806 806 806 805 805 806 805 804 805 807 807 808 809 810 812 813 814 816 817 817 817 817 817 817
818 817 816 816 815 815 814 814 813 813 812 811 810 809 808 808 807 806 806 805 804 804 804 804 804 803 803 803 802 802 802 802 803 803 803 802 803 803 804 804 805 805 804 803 804 804 803 804 806 807 807 808 809 810 811 813 815 816 815 815 816 816 816
818 817 816 816 815 815 814 814 813 813 812 811 811 810 809 808 807 806 806 805 805 804 803 803 803 803 803 802 802 802 802 802 802 803 802 802 802 802 802 802 803 803 803 803 803 803 803 803 805 806 807 807 808 809 810 812 814 814 815 815 815 815 815
818 817 816 816 815 815 814 814 813 813 812 812 811 810 809 809 808 807 806 806 805 804 803 803 802 802 802 802 802 801 801 801 801 802 801 801 801 800 800 800 801 801 802 802 803 803 802 802 804 805 806 806 807 807 809 811 812 814 815 814 814 815 814
818 817 816 816 816 815 814 814 814 813 813 812 812 811 810 809 808 807 807 806 805 804 804 803 802 802 802 801 801 801 800 801 800 800 800 800 800 799 799 799 799 799 800 801 802 802 801 802 803 804 805 805 806 807 808 809 811 813 814 814 814 814 814
818 817 816 816 816 815 815 814 814 814 813 812 812 811 811 810 809 808 807 806 806 805 804 803 802 802 801 800 800 800 800 799 799 799 799 799 799 799 798 798 798 798 798 799 800 800 800 801 802 803 804 805 805 807 807 809 810 811 813 813 814 814 814
818 817 816 816 816 816 815 815 814 814 813 813 812 812 811 810 809 808 808 807 806 805 804 803 802 801 801 800 800 799 799 799 798 798 798 798 799 798 798 798 798 798 798 798 799 799 799 800 801 802 803 804 805 806 807 808 809 810 811 812 812 813 813
818 817 816 816 817 816 815 815 814 814 814 813 812 812 811 810 809 808 807 807 806 805 804 803 802 801 800 799 799 799 798 798 798 797 797 797 798 798 797 798 798 798 798 798 798 798 798 799 800 802 803 803 804 805 806 808 808 809 809 810 811 811 812
818 817 817 817 817 816 815 815 814 814 813 813 813 812 811 810 809 808 808 807 807 806 805 803 802 801 799 798 798 798 798 798 797 797 797 797 798 798 798 798 798 798 799 799 798 798 798 798 800 801 802 802 803 805 805 807 808 808 809 809 810 810 810
818 817 817 817 816 816 815 815 814 814 813 813 813 812 811 810 810 809 809 808 807 806 805 804 802 801 800 799 799 798 798 798 797 797 798 798 798 798 798 798 798 798 799 799 799 799 798 798 800 801 801 802 804 805 805 807 807 808 808 809 809 810 809
818 817 817 816 816 816 815 815 814 814 813 813 812 812 811 811 810 810 809 809 808 807 805 804 802 801 801 800 799 799 798 798 798 798 799 799 799 799 799 799 799 799 799 799 799 799 799 799 800 802 802 802 804 805 805 806 807 808 808 808 808 808 808
818 817 817 816 816 815 815 815 814 813 813 812 812 812 811 811 811 811 810 810 809 807 806 804 803 802 801 801 800 800 800 799 799 799 800 800 800 800 800 800 800 800 800 800 800 800 800 800 800 801 801 802 803 804 804 805 806 807 807 806 806 806 806
818 818 817 817 816 815 815 814 814 813 812 812 812 812 811 811 812 811 811 810 809 808 807 806 804 803 801 801 801 801 801 800 800 801 801 801 801 801 801 801 801 801 801 801 801 800 800 800 800 800 801 801 802 802 803 803 804 804 804 804 804 804 804
819 818 818 817 816 816 815 814 813 813 812 812 812 812 811 812 812 812 812 811 810 809 808 807 806 804 803 802 802 802 801 801 801 802 802 802 802 802 802 802 802 802 802 802 801 801 800 800 800 800 800 800 801 802 802 802 803 803 803 803 803 803 803
819 819 818 817 816 816 814 813 813 812 812 812 811 812 812 812 812 813 813 812 811 810 809 808 807 806 804 803 803 803 802 802 802 803 803 803 803 803 803 803 803 803 803 803 802 801 801 800 800 800 800 800 801 801 802 802 803 803 804 804 803 803 803
819 818 818 817 816 816 814 813 812 812 811 811 811 811 812 812 813 813 813 812 811 810 810 809 808 807 806 805 804 804 804 804 804 804 804 804 804 804 805 805 805 805 805 804 803 803 802 802 801 801 801 801 801 802 802 803 803 804 804 804 804 803 803
819 818 817 816 816 816 814 813 812 811 810 810 810 811 812 812 813 813 813 813 812 811 810 810 809 809 808 807 806 806 806 806 806 806 805 805 806 807 807 807 807 807 807 806 806 805 805 804 803 803 803 803 803 803 803 803 804 804 804 804 804 804 804
819 818 817 817 816 816 814 814 813 811 810 809 810 811 812 812 813 814 814 813 812 811 811 810 810 810 809 808 808 808 808 808 808 807 807 808 808 809 809 809 809 809 809 809 808 808 808 807 807 806 806 805 805 805 804 804 805 805 805 805 806 806 806